This is the latest recevied weather packets stored in our database for station/object KC8P. If no packets are shown the sender has not sent any weather packets the latest 10 day(s).
| Time | Temp. | Humidity | Pressure | Rain* | Wind** | Luminosity | Snow |
|---|---|---|---|---|---|---|---|
| 1778357374 | 18.89° C | 60% | 1002.8 hPa | 0 mm | - | 592 W/m² | - |
| 1778357309 | 18.89° C | 65% | 1002.8 hPa | 0 mm | - | 586 W/m² | - |
| 1778357243 | 18.89° C | 65% | 1002.8 hPa | 0 mm | - | 605 W/m² | - |
| 1778357191 | 18.33° C | 66% | 1002.8 hPa | 0 mm | - | 609 W/m² | - |
| 1778357111 | 18.33° C | 66% | 1002.8 hPa | 0 mm | - | 659 W/m² | - |
| 1778357046 | 18.33° C | 68% | 1002.8 hPa | 0 mm | - | 669 W/m² | - |
| 1778356980 | 17.78° C | 67% | 1002.8 hPa | 0 mm | - | 636 W/m² | - |
| 1778356914 | 17.78° C | 67% | 1002.8 hPa | 0 mm | - | 545 W/m² | - |
| 1778356861 | 17.78° C | 66% | 1002.8 hPa | 0 mm | - | 350 W/m² | - |
| 1778356782 | 17.78° C | 68% | 1002.8 hPa | 0 mm | - | 448 W/m² | - |
| 1778356717 | 17.78° C | 68% | 1002.8 hPa | 0 mm | - | 663 W/m² | - |
| 1778356652 | 17.78° C | 66% | 1002.8 hPa | 0 mm | - | 652 W/m² | - |
| 1778356585 | 17.78° C | 71% | 1003.1 hPa | 0 mm | - | 647 W/m² | - |
| 1778356519 | 17.78° C | 68% | 1002.8 hPa | 0.25 mm | - | 649 W/m² | - |
| 1778356453 | 17.22° C | 69% | 1002.8 hPa | 0.25 mm | - | 637 W/m² | - |
| 1778356388 | 17.22° C | 70% | 1002.8 hPa | 0.25 mm | - | 674 W/m² | - |
| 1778356323 | 17.22° C | 72% | 1002.8 hPa | 0.51 mm | - | 617 W/m² | - |
| 1778356256 | 16.67° C | 70% | 1002.8 hPa | 0.76 mm | - | 609 W/m² | - |
| 1778356191 | 16.67° C | 72% | 1002.3 hPa | 1.27 mm | - | 457 W/m² | - |
| 1778356125 | 16.67° C | 72% | 1002.3 hPa | 2.03 mm | - | 346 W/m² | - |
| 1778356060 | 16.67° C | 76% | 1002.8 hPa | 2.79 mm | - | 304 W/m² | - |
| 1778355994 | 16.67° C | 75% | 1002.8 hPa | 3.3 mm | - | 291 W/m² | - |
| 1778355929 | 16.67° C | 76% | 1002.8 hPa | 3.81 mm | - | 413 W/m² | - |
| 1778355863 | 16.67° C | 78% | 1002.8 hPa | 5.84 mm | - | 507 W/m² | - |
| 1778355797 | 16.67° C | 78% | 1002.8 hPa | 7.11 mm | - | 596 W/m² | - |
* Rain latest hour (hover to see other rain measurements)
** Current wind speed in m/s (hover to see current wind gust speed)